Location: Holyhead Bay
(53.3667°N, 4.6667°W)
Time: 19:20:53
(UTC+00:00)

ALOS - Pass Details

Date: 24 November 2020
Orbit: 683 x 685 km, 97.9° (Epoch: 17 January)

Event Time Altitude Azimuth Distance (km) Brightness Sun altitude
Rises 16:43:00 0° 194° (SSW) 3,040 6.3 -5.0°
Reaches altitude 10° 16:45:29 10° 205° (SSW) 2,130 5.7 -5.3°
Maximum altitude 16:49:33 30° 266° (W) 1,237 4.5 -5.9°
Drops below altitude 10° 16:53:41 10° 328° (NNW) 2,146 4.9 -6.4°
Sets 16:56:12 0° 339° (NNW) 3,067 5.6 -6.8°
